Regional Weather Roundup
Issued by NWS Newport/Morehead, NC

Home | Current Version | Previous Version | Text Only | Print | Product List | Glossary On
Versions: 1 2 3 4 5 6 7 8 9 10 11 12 13 14 15 16 17 18 19 20 21 22 23 24 25 26 27 28 29 30 31 32 33 34 35 36 37 38 39 40 41 42 43 44 45 46 47 48 49 50
000
ASUS42 KMHX 081925
RWRMHX
WEATHER ROUNDUP FOR EASTERN NORTH CAROLINA
NATIONAL WEATHER SERVICE NEWPORT/MOREHEAD CITY NC
300 PM EDT SAT MAY 08 2021

NOTE: "FAIR" INDICATES FEW OR NO CLOUDS BELOW 12,000 FEET
WITH NO SIGNIFICANT WEATHER AND/OR OBSTRUCTIONS TO VISIBILITY

NCZ015>017-031-032-045>047-102-103-082000-
NORTH COAST

CITY           SKY/WX    TMP DP  RH WIND       PRES   REMARKS
EDENTON        MOSUNNY   72  45  38 NW14G21   29.94F
ELIZABETH CITY SUNNY     71  38  29 W24G33    29.93S
KITTY HAWK     CLEAR     69  43  39 W13G18    29.93F
MANTEO         MOSUNNY   69  44  39 NW14G21   29.94F

$$

NCZ045>047-081-094-103-104-082000-
CENTRAL COAST

CITY           SKY/WX    TMP DP  RH WIND       PRES   REMARKS
FRISCO         MOSUNNY   74  48  39 W10G22    29.96S

$$

NCZ095-097-098-100-101-082000-
SOUTHERN COAST

CITY           SKY/WX    TMP DP  RH WIND       PRES   REMARKS
PINEY ISLAND   MOCLDY    73  43  33 W17G24    29.95S
BEAUFORT       MOSUNNY   72  48  42 SW26G33   29.96S
CAPE CARTERET  NOT AVBL
JACKSONVILLE   MOSUNNY   76  40  27 W15G28    29.96F
WILMINGTON     MOSUNNY   77  39  25 W17G24    29.99S


$$

NCZ011>013-027>030-043-044-078>080-089-090>093-098-082000-
COASTAL PLAIN

CITY           SKY/WX    TMP DP  RH WIND       PRES   REMARKS
AHOSKIE        MOSUNNY   68  38  32 NW10G20   29.94F
ROCKY MOUNT    MOSUNNY   76  35  22 W13G22    29.95F
GREENVILLE     SUNNY     73  39  29 W12G21    29.97F
WASHINGTON     SUNNY     74  38  27 W14G23    29.95S
GOLDSBORO      MOSUNNY   74  39  27 W16G23    29.94S
KINSTON        MOSUNNY   75  39  27 W23G31    29.96F
NEW BERN       MOSUNNY   74  41  30 W14G24    29.96S
HAVELOCK       NOT AVBL
KENANSVILLE    MOSUNNY   75  39  27 NW15G24   29.96F
RICHLANDS      MOSUNNY   75  43  31 SW12G22   29.97F
CLINTON        SUNNY     76  41  29 W16G22    29.98S
ELIZABETHTOWN  PTSUNNY   76  41  27 W12G17    29.99S
WHITEVILLE     PTSUNNY   76  39  26 SW8       30.00F

$$

AMZ130-135-150-152-154-156-158-170-250-252-270-ANZ085-086-088-633-658-670-082000-
MARINE OBSERVATIONS

STATION/POSITION TIME  TEMP    WIND        PRES    WAVE   SWELL
                       AIR SEA DIR/SP/G            HT/PER HT/PER
                 (UTC) (F)     (DEG/KT/KT) (MB)    (FT/S) (FT/S)
64 E VA BEACH    1910      58  300/ 10/ 12 1013.7
64 E VA BEACH    1830   59 58                N/A     4/10   2/10
DUCK PIER        1848   66     290/ 17/ 25 1013.4
2 E DUCK         1856      61                N/A     2/ 8
10 NE DUCK       1856      60                N/A     3/ 4
OREGON INLET     1842   67 63  280/ 12/ 17 1013.9
13E OREGON INLT  1856      60                N/A     4/ 5   2/ 8
HATTERAS CG      1848   68 65  280/ 14/ 17 1014.5
DIAMOND BUOY     NOT AVBL
CAPE LOOKOUT     1900   70     230/ 16/ 22 1015.0
BEAUFORT LAB     1848   69 69  210/ 16/ 23 1015.1
30 SE NEW RVR IN NOT AVBL
30 SE NEW RVR IN 1826      71                N/A     5/ 5
27 SE WRIGHTSVLE 1908   69 71  210/ 21/ 31 1015.7
5 SE WRIGHTSVLE  1908   69 69  240/ 21/ 29 1015.8
27 SE WRIGHTSVL  1908   69 71  210/ 21/ 31 1015.7
FRYING PAN BUOY  1910      71  240/ 16/ 21 1016.4
225 S CAPE HAT   NOT AVBL
41 SE CHARLESTON NOT AVBL

$$



USA.gov is the U.S. government's official web portal to all federal, state and local government web resources and services.